Погода в Чуровичах

Россия / Брянская область     52°10′16″N   32°00′00″E
темп.,
°C
ветер,
м/с
пор.,
м/с
влажн.,
%
обл.,
%
осадки,
мм/ч
давл.,
гПа
погр.,
м
8 марта, пн
пн800:00−2зсз4897100 1.6 1006403
03:00−3з3892100 2.1 1005216
06:00−4зюз4995100 0.1 1006257
09:00−4зсз5109491 0.3 1006541
12:00−2зсз578699 0.1 1008879
15:00−2зсз578699 0.4 1008901
18:00−3зсз3585100 0.4 1009109
21:00−5ссз41086100 1.3 1012511
9 марта, вт
вт900:00−10сз349424 0.0 101478
03:00−10ссз479640 0.0 1015156
06:00−12ссз469517 0.0 1017133
09:00−11ссз489326 0.0 1019304
12:00−7ссз57810 0.0 1020715
15:00−5ссз467815 0.0 10211045
18:00−6сз3787100 0.1 1022266
21:00−11ссз339065 0.1 102425
10 марта, ср
ср1000:00−13сз12900 0.0 102621
03:00−13зсз11890 0.0 102621
06:00−13юз228645 0.0 102621
09:00−10юз348971 0.0 1026146
12:00−4зюз468396 0.0 1026580
15:00−2з467790 0.0 1026881
18:00−4сз238398 0.0 102634
21:00−7ссв359194 0.0 102895
11 марта, чт
чт1100:00−11в489599 0.1 1029261
03:00−15в489695 0.2 1030184
06:00−17в489665 0.0 1031151
09:00−16вюв479149 0.0 1032213
12:00−11вюв46910 0.0 1031313
15:00−7юв468935 0.0 1030468
18:00−8юв479296 0.0 1028249
21:00−12юв499788 0.0 1028172
12 марта, пт
пт1200:00−11юв5109697 0.0 1027256
03:00−9ююв6149199 0.0 1024366
06:00−6ююв81783100 0.0 1021561
09:00−4ю101885100 0.1 1018870
12:00−3ю121995100 1.6 10161056
15:000ююз111897100 4.4 10141131
18:000ююз101598100 2.4 1012905
21:00+1ююз71299100 3.8 1012349